Simultaneous Nadir Overpasses (SNOs) Predictions

Prediction of SNOs between NOAA-19 and TERRA Satellite Orbit:

Table of predicted SNOs for the next 14.0 days since TLE Epoch: 7/31/2021
Index Date (NOAA-19) Time (NOAA-19) Lat,Lon (NOAA-19) SZA (NOAA-19 ) Date (TERRA) Time (TERRA) Lat,Lon (TERRA) SZA (TERRA ) Distance(km) Time Diff (sec)
1 08/01/2021 17:25:47 -80.36, 132.41 115.94 08/01/2021 17:26:58 -80.38, 132.45 115.89 2.26 71
2 08/01/2021 18:16:42 80.36, -60.32 64.08 08/01/2021 18:16:25 80.35, -60.18 64.08 2.86 17
3 08/03/2021 23:49:55 -80.36, 36.48 115.33 08/03/2021 23:50:07 -80.36, 36.51 115.32 0.86 12
4 08/04/2021 00:40:43 80.22,-153.97 64.79 08/04/2021 00:39:33 80.36,-155.82 64.70 38.28 70
5 08/06/2021 05:22:58 80.37, 133.14 65.28 08/06/2021 05:23:48 80.38, 133.23 65.32 2.06 50
6 08/06/2021 06:14:03 -80.36, -59.49 114.71 08/06/2021 06:13:16 -80.34, -59.45 114.74 1.73 47
7 08/08/2021 11:47:06 80.37, 37.15 65.93 08/08/2021 11:46:57 80.36, 37.23 65.92 2.08 9
8 08/10/2021 17:20:19 -80.37, 133.88 113.42 08/10/2021 17:20:39 -80.37, 133.91 113.41 0.63 20
9 08/10/2021 18:11:13 80.35, -58.52 66.61 08/10/2021 18:10:05 80.37, -58.48 66.60 1.58 68
10 08/12/2021 22:53:22 80.38,-129.46 67.26 08/12/2021 22:54:20 80.37,-129.48 67.27 0.98 58



Historial Predications of SNOs between NOAA-19 and TERRA
